Regional Weather Roundup
Issued by NWS

Home | Current Version | Previous Version | Text Only | Print | Product List | Glossary Off
Versions: 1 2 3 4 5 6 7 8 9 10 11 12 13 14 15 16 17 18 19 20 21 22 23 24 25 26 27 28 29 30 31 32 33 34 35 36 37 38 39 40 41 42 43 44 45 46 47 48 49 50

355
ASUS43 KFSD 190210
RWRSD

WEATHER ROUNDUP FOR SOUTH DAKOTA
NATIONAL WEATHER SERVICE SIOUX FALLS SD
900 PM CDT FRI AUG 18 2017

NOTE: "FAIR" INDICATES FEW OR NO CLOUDS BELOW 12,000 FEET WITH NO
SIGNIFICANT WEATHER AND/OR OBSTRUCTIONS TO VISIBILITY.


SDZ001>005-009-010-012>017-190300-
NORTHWEST AND NORTH CENTRAL SOUTH DAKOTA

CITY           SKY/WX    TMP DP  RH WIND       PRES   REMARKS
BUFFALO          N/A     77  46  33 E12       29.87F
FAITH            N/A     73  51  46 SE12      29.94F
MOBRIDGE       CLEAR     65  59  81 E7        29.91S
$$

SDZ012>016-024>037-041>051-057-063-072>074-190300-
SOUTHWEST AND SOUTH CENTRAL SOUTH DAKOTA

CITY           SKY/WX    TMP DP  RH WIND       PRES   REMARKS
RAPID CTY ARPT CLEAR     72  47  40 SE3       29.98S
PIERRE         CLEAR     69  53  56 E7        29.93S
CUSTER         CLEAR     66  43  43 E10       30.13S
ELLSWORTH AFB  CLEAR     77  45  31 SE5       29.97S
PHILIP         CLEAR     72  51  47 E8        29.94R
PINE RIDGE     CLEAR     71  54  54 E7        30.00S
SPEARFISH      FAIR      72  45  37 SE9       30.01S
WINNER         FAIR      73  58  59 E7        29.97F
$$

SDZ004>011-016>023-039-040-190300-
NORTHEAST SOUTH DAKOTA

CITY           SKY/WX    TMP DP  RH WIND       PRES   REMARKS
ABERDEEN       PTCLDY    65  61  87 S5        29.93S
WATERTOWN      CLEAR     63  60  90 NW3       29.93R
BROOKINGS      CLEAR     63  59  87 N6        29.94R
SISSETON         N/A     65  61  87 W5        29.90S
$$

SDZ017-020-022-023-036>040-048>070-190300-
SOUTHEAST SOUTH DAKOTA

CITY           SKY/WX    TMP DP  RH WIND       PRES   REMARKS
SIOUX FALLS    PTCLDY    68  61  78 NW9       29.93R
HURON          CLEAR     67  58  72 NE5       29.94S
CHAMBERLAIN    CLEAR     69  62  78 NE3       29.96S
MITCHELL       CLEAR     65  60  84 NW7       29.95S
YANKTON        CLEAR     68  59  73 NW9       29.95R
$$

ABBREVIATIONS USED IN REMARKS
   TC - TEMPERATURE IN CELSIUS
  WCI - WIND CHILL INDEX
   HX - HEAT INDEX
  VSB - VISIBILITY





USA.gov is the U.S. government's official web portal to all federal, state and local government web resources and services.